[[{"header":{"parameterUnit":"m.s-1","parameterCategory":2,"la1":30.2992,"la2":30.254,"lo1":-89.0895,"lo2":-89.0443,"dy":0.0025,"dx":0.0025,"nx":19,"ny":19,"refTime":"2026-04-11T09:00:00:Z","depth":"0","parameterNumber":2,"parameterNumberName":"U-component_of_CURRENTS"},"data":[0,0,0,0.2556,0.2556,0.2516,0.2516,0.2482,0.2482,0,0,0,0,0,0,0,0,0,0,0,0.2567,0.2567,0.2556,0.2556,0.2516,0.2515,0.2482,0.2482,0,0,0,0,0,0,0,0,0,0,0,0.2567,0.2567,0.2567,0.2556,0.2516,0.2515,0.2482,0.2503,0,0,0,0,0,0,0,0,0,0,0.2539,0.2534,0.2567,0.2567,0.2556,0.2516,0.2515,0.2504,0.2502,0.251,0,0.2512,0,0.2506,0.2481,0.2481,0,0,0,0.2539,0.2536,0.2547,0.2567,0.2556,0.2516,0.2529,0.2503,0.2501,0.2507,0.2512,0.251,0.2505,0.2481,0.2481,0.2518,0.2519,0,0,0.2541,0.2536,0.2549,0.2546,0.2557,0.2531,0.2528,0.2501,0.2492,0.2512,0.2509,0.2505,0.2481,0.2481,0.2518,0.2518,0,0,0,0.2559,0.2537,0.2548,0.2547,0.2544,0.253,0.2527,0.2492,0.2502,0.2509,0.2504,0.2481,0.2481,0.2517,0.2518,0.2558,0,0,0,0.256,0.255,0.2549,0.2542,0.2545,0.2511,0.2518,0.2503,0.25,0.2505,0.2481,0.2481,0.2517,0.2518,0.2556,0.2567,0,0,0,0.2567,0.2549,0.2554,0.2542,0.2535,0.2512,0.2518,0.2502,0.2499,0.2481,0.2481,0.2516,0.2517,0.2554,0.2564,0.2637,0,0,0,0.255,0.2527,0.2553,0.2523,0.2536,0.2528,0.2518,0.2495,0.248,0.2481,0.2517,0.2518,0.2554,0.2562,0.2635,0.2676,0.2692,0,0,0.2508,0.2521,0.2504,0.2527,0.2514,0.2531,0.2533,0.2508,0.2503,0.2523,0.2523,0.2557,0.2564,0.2637,0.2737,0.2751,0,0,0,0.2482,0.2473,0.2472,0.2472,0.2487,0.2523,0.2515,0.2534,0.2552,0.2504,0.2567,0.257,0.2615,0.2635,0.2646,0.2721,0.2523,0.2523,0.2523,0.2413,0.2431,0.2413,0.2446,0.2464,0.2515,0.2551,0.2584,0.2572,0.26,0.2611,0.2702,0.2723,0.2732,0.2808,0.2624,0.2624,0.2624,0.2624,0.2351,0.2333,0.2392,0.2381,0.2459,0.2484,0.2592,0.2617,0.2704,0.2664,0.2707,0.2685,0.2747,0.2824,0.2627,0.2627,0.2626,0.2626,0.2626,0.2286,0.2282,0.2297,0.2326,0.2386,0.2475,0.2579,0.2666,0.2731,0.278,0.2826,0.2826,0.2889,0.2813,0.2814,0.2814,0.2814,0.2815,0.2815,0.2206,0.2226,0.222,0.2268,0.2301,0.2404,0.2574,0.2673,0.2828,0.2877,0.2878,0.2937,0.276,0.2748,0.2821,0.282,0.2819,0.2818,0.2818,0.2087,0.2125,0.2114,0.2137,0.2225,0.2291,0.2499,0.2739,0.2871,0.2956,0.3096,0.2945,0.2942,0.2933,0.2925,0.3039,0.3039,0.3039,0.3039,0.2016,0.2031,0.2025,0.2045,0.2113,0.2236,0.2381,0.264,0.2995,0.3157,0.323,0.3198,0.3185,0.3194,0.3179,0.3175,0.335,0.3351,0.3351,0.1946,0.1971,0.1935,0.1972,0.2041,0.2155,0.2252,0.2499,0.3059,0.337,0.3332,0.3319,0.3273,0.3247,0.3255,0.3227,0.3217,0,0]},{"header":{"parameterUnit":"m.s-1","parameterCategory":2,"la1":30.2992,"la2":30.254,"lo1":-89.0895,"lo2":-89.0443,"dy":0.0025,"dx":0.0025,"nx":19,"ny":19,"refTime":"2026-04-11T09:00:00:Z","depth":"0","parameterNumber":3,"parameterNumberName":"V-component_of_CURRENTS"},"data":[0,0,0,-0.0012,-0.0013,-0.0055,-0.0056,-0.0143,-0.0144,0,0,0,0,0,0,0,0,0,0,0,0.0004,0.0004,-0.0012,-0.0013,-0.0055,-0.0056,-0.0143,-0.0144,0,0,0,0,0,0,0,0,0,0,0,0.0004,0.0004,0.0004,-0.0013,-0.0055,-0.0056,-0.0143,-0.0105,0,0,0,0,0,0,0,0,0,0,-0.006,-0.0033,0.0004,0.0004,-0.0013,-0.0055,-0.0056,-0.0102,-0.0107,-0.013,0,-0.0129,0,-0.0136,-0.0149,-0.015,0,0,0,-0.0022,-0.0029,-0.0044,0.0004,-0.0013,-0.0055,-0.0039,-0.0105,-0.011,-0.0136,-0.013,-0.0133,-0.0137,-0.015,-0.015,-0.0165,-0.0164,0,0,-0.002,-0.0005,-0.004,-0.0046,-0.0016,-0.0037,-0.004,-0.0108,-0.0108,-0.0131,-0.0135,-0.0139,-0.0151,-0.0151,-0.0165,-0.0165,0,0,0,-0.0007,-0.0004,-0.0016,-0.0043,-0.0047,-0.0038,-0.0041,-0.0105,-0.011,-0.0136,-0.014,-0.0151,-0.0152,-0.0166,-0.0165,-0.0063,0,0,0,-0.0006,0.0004,-0.0014,-0.0007,-0.0045,-0.0071,-0.0038,-0.0105,-0.0113,-0.0139,-0.0151,-0.0153,-0.0166,-0.0165,-0.0067,0.0002,0,0,0,0.0004,0.0005,0.0003,-0.0006,-0.002,-0.007,-0.0078,-0.0107,-0.0115,-0.015,-0.0153,-0.0167,-0.0166,-0.007,-0.0005,0.0037,0,0,0,0.0016,0.0054,0.0003,0.0041,-0.002,-0.0009,-0.0078,-0.0085,-0.0107,-0.0152,-0.0166,-0.0165,-0.0071,-0.0009,0.0033,0.0136,0.0164,0,0,0.008,0.0062,0.0086,0.004,0.0077,-0.0005,0.0026,-0.0039,-0.01,-0.015,-0.015,-0.0065,-0.0006,0.0036,0.0203,0.0229,0,0,0,0.0117,0.0133,0.0135,0.0138,0.0117,0.0107,0.0036,0.0002,-0.004,-0.0107,-0.0071,-0.0036,-0.0013,0.004,0.0061,-0.0024,-0.016,-0.016,-0.016,0.0226,0.0208,0.0253,0.0233,0.0229,0.0178,0.0165,0.0103,0.0025,0.0024,0.0043,0.0142,0.02,0.0217,0.0128,0.0024,0.0024,0.0024,0.0024,0.0329,0.0356,0.0334,0.0367,0.0338,0.0341,0.0281,0.0229,0.0209,0.0132,0.0148,0.0141,0.0246,0.0142,0.0031,0.003,0.0029,0.0028,0.0028,0.0393,0.0408,0.0414,0.0454,0.048,0.044,0.0494,0.0419,0.0318,0.034,0.0364,0.0363,0.0275,0.0336,0.0337,0.0337,0.0338,0.0338,0.0338,0.0453,0.0466,0.0514,0.0546,0.0583,0.0633,0.0615,0.0615,0.0572,0.0504,0.0503,0.0313,0.0237,0.0228,0.0346,0.0345,0.0344,0.0343,0.0343,0.0533,0.0529,0.0613,0.0657,0.0759,0.0891,0.0858,0.0895,0.0846,0.0853,0.0578,0.0574,0.0551,0.0534,0.0532,0.0721,0.0721,0.0721,0.0721,0.0587,0.059,0.0708,0.0804,0.0928,0.1014,0.1202,0.1204,0.0975,0.0834,0.0683,0.062,0.0608,0.0581,0.0563,0.0558,0.075,0.075,0.0749,0.0646,0.0675,0.0774,0.0859,0.1003,0.1172,0.1387,0.1503,0.1108,0.0734,0.0546,0.0545,0.0427,0.0416,0.0347,0.0329,0.0309,0,0]}],[{"header":{"parameterUnit":"m.s-1","parameterCategory":2,"la1":30.2992,"la2":30.254,"lo1":-89.0895,"lo2":-89.0443,"dy":0.0025,"dx":0.0025,"nx":19,"ny":19,"refTime":"2026-04-11T09:00:00:Z","depth":"2","parameterNumber":2,"parameterNumberName":"U-component_of_CURRENTS"},"data":[0,0,0,0.2137,0.2138,0.2207,0.2207,0.2266,0.2267,0,0,0,0,0,0,0,0,0,0,0,0.2109,0.2109,0.2137,0.2139,0.2207,0.2207,0.2266,0.2267,0,0,0,0,0,0,0,0,0,0,0,0.2108,0.2109,0.211,0.2139,0.2207,0.2207,0.2266,0.222,0,0,0,0,0,0,0,0,0,0,0.2156,0.2134,0.2109,0.211,0.2139,0.2207,0.2207,0.2218,0.2223,0.2229,0,0.2243,0,0.2261,0.227,0.2271,0,0,0,0.2133,0.213,0.2153,0.211,0.214,0.2207,0.2174,0.2221,0.2226,0.2235,0.2244,0.2247,0.2262,0.2271,0.2271,0.2352,0.2353,0,0,0.2129,0.2115,0.215,0.2157,0.2163,0.2172,0.2176,0.2224,0.2228,0.2244,0.2249,0.2263,0.2271,0.2272,0.2352,0.2353,0,0,0,0.2122,0.2113,0.2135,0.2154,0.2172,0.2174,0.2179,0.2226,0.2235,0.2249,0.2264,0.2271,0.2272,0.2352,0.2352,0.239,0,0,0,0.2119,0.2109,0.2134,0.2125,0.2171,0.2203,0.218,0.2232,0.2238,0.2263,0.2272,0.2273,0.2351,0.2352,0.2388,0.2398,0,0,0,0.2105,0.2108,0.2118,0.2125,0.2158,0.2203,0.2215,0.2233,0.2247,0.2271,0.2273,0.2351,0.2352,0.2386,0.2395,0.246,0,0,0,0.2084,0.2096,0.2118,0.2142,0.2158,0.2212,0.2215,0.2253,0.2274,0.2272,0.2351,0.2352,0.2385,0.2394,0.2458,0.2446,0.2457,0,0,0.2085,0.2096,0.2112,0.2133,0.2176,0.2202,0.2259,0.2286,0.2293,0.2331,0.2333,0.2389,0.2395,0.246,0.2509,0.2518,0,0,0,0.2104,0.2111,0.213,0.2163,0.2208,0.2259,0.2293,0.2319,0.2365,0.2314,0.24,0.2403,0.2443,0.2431,0.2438,0.2357,0.2357,0.2357,0.2357,0.2062,0.2101,0.213,0.2183,0.2228,0.2302,0.2351,0.2394,0.2395,0.2426,0.2443,0.2528,0.2515,0.2521,0.2456,0.2457,0.2457,0.2457,0.2457,0.2052,0.2065,0.213,0.2171,0.2243,0.2299,0.2408,0.2436,0.2526,0.2494,0.2531,0.2481,0.2531,0.246,0.246,0.2459,0.2459,0.2459,0.2458,0.2009,0.2021,0.2061,0.2128,0.2204,0.23,0.2402,0.249,0.2553,0.2599,0.2608,0.2607,0.2556,0.263,0.263,0.263,0.2631,0.2631,0.2631,0.1939,0.1983,0.2004,0.2085,0.2128,0.2236,0.2403,0.2494,0.2619,0.2652,0.2652,0.2587,0.2581,0.2567,0.2636,0.2636,0.2635,0.2634,0.2634,0.1873,0.1897,0.1924,0.1961,0.2066,0.2121,0.2317,0.2508,0.2629,0.2686,0.2694,0.269,0.2682,0.2675,0.2664,0.2755,0.2755,0.2755,0.2755,0.1813,0.1832,0.1851,0.1886,0.1956,0.2065,0.2153,0.2323,0.2537,0.2602,0.2608,0.2541,0.2541,0.252,0.2517,0.25,0.2548,0.2547,0.2547,0.1764,0.1787,0.1771,0.1819,0.1888,0.1976,0.1998,0.2055,0.2287,0.2531,0.2499,0.2755,0.2671,0.2665,0.2642,0.2633,0.261,0,0]},{"header":{"parameterUnit":"m.s-1","parameterCategory":2,"la1":30.2992,"la2":30.254,"lo1":-89.0895,"lo2":-89.0443,"dy":0.0025,"dx":0.0025,"nx":19,"ny":19,"refTime":"2026-04-11T09:00:00:Z","depth":"2","parameterNumber":3,"parameterNumberName":"V-component_of_CURRENTS"},"data":[0,0,0,0.0071,0.007,-0.0016,-0.0017,-0.0125,-0.0126,0,0,0,0,0,0,0,0,0,0,0,0.0102,0.0102,0.0071,0.0069,-0.0016,-0.0017,-0.0125,-0.0126,0,0,0,0,0,0,0,0,0,0,0,0.0102,0.0102,0.0101,0.0069,-0.0016,-0.0017,-0.0125,-0.0063,0,0,0,0,0,0,0,0,0,0,0.0018,0.0053,0.0102,0.0101,0.0069,-0.0016,-0.0017,-0.0061,-0.0067,-0.0083,0,-0.0088,0,-0.0105,-0.0132,-0.0133,0,0,0,0.0058,0.0059,0.0036,0.0101,0.0068,-0.0016,0.0019,-0.0064,-0.0072,-0.0091,-0.009,-0.0094,-0.0107,-0.0133,-0.0133,-0.016,-0.0159,0,0,0.0062,0.0083,0.0041,0.0031,0.0055,0.0022,0.0017,-0.0069,-0.0073,-0.009,-0.0097,-0.0109,-0.0133,-0.0134,-0.016,-0.016,0,0,0,0.0084,0.0086,0.0065,0.0036,0.0023,0.002,0.0014,-0.0069,-0.0076,-0.0098,-0.011,-0.0134,-0.0135,-0.0161,-0.016,-0.0071,0,0,0,0.0086,0.0099,0.0067,0.0078,0.0025,-0.0024,0.0016,-0.007,-0.008,-0.011,-0.0134,-0.0136,-0.0161,-0.016,-0.0074,-0.0012,0,0,0,0.0104,0.0101,0.0094,0.0079,0.0047,-0.0023,-0.0035,-0.0073,-0.0087,-0.0133,-0.0136,-0.0161,-0.016,-0.0077,-0.0018,0.0014,0,0,0,0.0123,0.0132,0.0095,0.0102,0.0048,0.0029,-0.0035,-0.0063,-0.0095,-0.0134,-0.0161,-0.016,-0.0078,-0.0022,0.001,0.0079,0.0101,0,0,0.015,0.0136,0.0142,0.0106,0.0115,0.004,0.0044,-0.0029,-0.0087,-0.0136,-0.0137,-0.0073,-0.0019,0.0013,0.0133,0.0154,0,0,0,0.016,0.0169,0.0163,0.0157,0.0125,0.0112,0.0035,0.0002,-0.0045,-0.01,-0.0079,-0.0047,-0.003,0.0003,0.002,-0.0156,-0.0156,-0.0156,-0.0156,0.0227,0.0212,0.0237,0.022,0.0208,0.0156,0.0138,0.0079,0.0008,0.0005,0.0021,0.0103,0.014,0.0153,0.0001,0.0002,0.0002,0.0002,0.0003,0.0292,0.0312,0.0302,0.0318,0.0299,0.0292,0.0235,0.0188,0.0164,0.0097,0.0108,0.0091,0.0176,0.001,0.0008,0.0007,0.0007,0.0006,0.0006,0.0343,0.0355,0.0359,0.0394,0.0416,0.0379,0.0426,0.0355,0.0261,0.0278,0.028,0.0278,0.0163,0.0271,0.0271,0.0272,0.0272,0.0272,0.0273,0.0392,0.0403,0.0446,0.0474,0.0508,0.0553,0.0535,0.053,0.0472,0.0401,0.04,0.0193,0.0185,0.0178,0.0279,0.0278,0.0277,0.0277,0.0276,0.0454,0.0456,0.053,0.0573,0.0667,0.0778,0.0747,0.0754,0.0705,0.0692,0.0455,0.0449,0.0426,0.0412,0.041,0.0566,0.0566,0.0566,0.0566,0.05,0.0504,0.0614,0.0704,0.0817,0.0886,0.102,0.0973,0.081,0.0685,0.0679,0.0635,0.0621,0.0605,0.0586,0.0585,0.0787,0.0787,0.0787,0.055,0.0579,0.0669,0.0752,0.0883,0.102,0.1156,0.1126,0.0885,0.0793,0.0686,0.0587,0.0503,0.0489,0.0442,0.0421,0.0411,0,0]}],[{"header":{"parameterUnit":"m.s-1","parameterCategory":2,"la1":30.2992,"la2":30.254,"lo1":-89.0895,"lo2":-89.0443,"dy":0.0025,"dx":0.0025,"nx":19,"ny":19,"refTime":"2026-04-11T09:00:00:Z","depth":"4","parameterNumber":2,"parameterNumberName":"U-component_of_CURRENTS"},"data":[0,0,0,0.141,0.1415,0.1622,0.1623,0.1771,0.1772,0,0,0,0,0,0,0,0,0,0,0,0.1338,0.134,0.141,0.1415,0.1622,0.1623,0.1771,0.1772,0,0,0,0,0,0,0,0,0,0,0,0.1338,0.134,0.1342,0.1416,0.1622,0.1623,0.1771,0.1642,0,0,0,0,0,0,0,0,0,0,0.1455,0.1411,0.1339,0.1342,0.1417,0.1622,0.1623,0.1637,0.165,0.1645,0,0.169,0,0.1736,0.178,0.178,0,0,0,0.1411,0.14,0.1454,0.1342,0.1419,0.1621,0.1527,0.1646,0.166,0.1662,0.1693,0.17,0.1738,0.1781,0.1781,0.1909,0.191,0,0,0.1399,0.1374,0.1445,0.1464,0.1488,0.1521,0.1534,0.1656,0.1675,0.1694,0.1704,0.174,0.1781,0.1782,0.1909,0.1909,0,0,0,0.137,0.1366,0.142,0.1457,0.1505,0.1527,0.1542,0.167,0.1688,0.1706,0.1742,0.1782,0.1784,0.1908,0.1909,0.195,0,0,0,0.1362,0.1349,0.1415,0.1401,0.1503,0.1607,0.1553,0.168,0.1695,0.1741,0.1782,0.1785,0.1907,0.1909,0.1947,0.1957,0,0,0,0.1326,0.1345,0.1374,0.1399,0.1492,0.1607,0.1633,0.1685,0.1717,0.178,0.1785,0.1907,0.1908,0.1945,0.1953,0.2007,0,0,0,0.1285,0.1338,0.1374,0.1448,0.149,0.1608,0.1633,0.1731,0.1789,0.1783,0.1908,0.1909,0.1944,0.1951,0.2004,0.1767,0,0,0,0.1322,0.1343,0.1385,0.1421,0.1522,0.1578,0.1689,0.1776,0.1802,0.1857,0.1861,0.1948,0.1953,0.2006,0.1846,0,0,0,0,0.1376,0.1405,0.1443,0.1517,0.1601,0.1686,0.1774,0.1816,0.1905,0.1846,0.1963,0.1965,0.1997,0.1852,0.1915,0.1915,0.1915,0.1915,0.1915,0.1369,0.1423,0.1492,0.1571,0.1648,0.1769,0.1843,0.1915,0.1936,0.1984,0.201,0.2091,0.194,0.2027,0.2027,0.2027,0.2027,0.2027,0.2028,0.1397,0.1429,0.1514,0.1602,0.1695,0.1794,0.1922,0.1968,0.2078,0.2062,0.2092,0.1918,0.2032,0.2031,0.203,0.203,0.203,0.2029,0.2029,0.1361,0.1384,0.1459,0.1577,0.1694,0.1819,0.1927,0.2035,0.211,0.2157,0.2024,0.2129,0.2113,0.2189,0.2189,0.219,0.219,0.219,0.219,0.1284,0.1358,0.142,0.1551,0.1628,0.1759,0.1943,0.2017,0.2127,0.2045,0.2183,0.2146,0.2141,0.2123,0.2195,0.2194,0.2193,0.2193,0.2193,0.1229,0.1271,0.1346,0.142,0.1575,0.1645,0.1849,0.1934,0.1997,0.1988,0.1988,0.1997,0.1963,0.1963,0.1937,0.1956,0.1953,0.1951,0,0.1171,0.1202,0.1282,0.1355,0.1429,0.157,0.1601,0.1717,0.182,0.1752,0.2003,0.1999,0.2004,0.1962,0.1958,0.1924,0,0,0,0.1131,0.1166,0.119,0.128,0.1348,0.1446,0.1599,0.1582,0.1796,0.1798,0.1881,0.1899,0.2092,0.2208,0.2178,0.2172,0.2143,0,0]},{"header":{"parameterUnit":"m.s-1","parameterCategory":2,"la1":30.2992,"la2":30.254,"lo1":-89.0895,"lo2":-89.0443,"dy":0.0025,"dx":0.0025,"nx":19,"ny":19,"refTime":"2026-04-11T09:00:00:Z","depth":"4","parameterNumber":3,"parameterNumberName":"V-component_of_CURRENTS"},"data":[0,0,0,0.0141,0.014,0.006,0.0059,-0.0041,-0.0041,0,0,0,0,0,0,0,0,0,0,0,0.0171,0.017,0.0142,0.014,0.006,0.0059,-0.0041,-0.0041,0,0,0,0,0,0,0,0,0,0,0,0.0171,0.0171,0.017,0.014,0.006,0.0059,-0.004,0.0017,0,0,0,0,0,0,0,0,0,0,0.0094,0.0126,0.0171,0.017,0.0139,0.006,0.0059,0.002,0.0014,-0.0,0,-0.0006,0,-0.0023,-0.0047,-0.0047,0,0,0,0.013,0.0131,0.0109,0.017,0.0139,0.006,0.0093,0.0016,0.0009,-0.0008,-0.0008,-0.0012,-0.0025,-0.0048,-0.0048,-0.0082,-0.0082,0,0,0.0134,0.0153,0.0114,0.0105,0.0126,0.0096,0.0091,0.0012,0.0008,-0.0008,-0.0014,-0.0026,-0.0048,-0.0049,-0.0083,-0.0082,0,0,0,0.0154,0.0157,0.0136,0.0109,0.0096,0.0094,0.0088,0.0012,0.0005,-0.0016,-0.0027,-0.0049,-0.005,-0.0083,-0.0083,-0.0014,0,0,0,0.0156,0.0168,0.0138,0.0148,0.0098,0.0053,0.009,0.001,0.0001,-0.0027,-0.0049,-0.0051,-0.0083,-0.0083,-0.0017,0.0034,0,0,0,0.0173,0.017,0.0163,0.015,0.0119,0.0054,0.0042,0.0008,-0.0006,-0.0048,-0.0051,-0.0083,-0.0083,-0.0019,0.0029,0.0049,0,0,0,0.0191,0.0187,0.0164,0.0158,0.012,0.0093,0.0042,0.0012,-0.0019,-0.0049,-0.0083,-0.0083,-0.002,0.0026,0.0046,0.0085,0,0,0,0.0197,0.0188,0.0186,0.0163,0.0158,0.0103,0.0096,0.0032,-0.0014,-0.006,-0.0061,-0.0016,0.0029,0.0048,0.012,0,0,0,0,0.0195,0.0198,0.0191,0.0183,0.0154,0.0144,0.0079,0.0052,0.001,-0.0029,-0.0022,0.0004,0.0014,0.0028,-0.0079,-0.008,-0.008,-0.008,-0.008,0.0228,0.0219,0.023,0.022,0.0207,0.0167,0.015,0.0103,0.0047,0.0042,0.0054,0.0112,0.0129,0.0035,0.0036,0.0036,0.0036,0.0036,0.0037,0.0261,0.0273,0.0275,0.0282,0.0274,0.0266,0.0219,0.0183,0.016,0.011,0.0115,0.0093,0.0043,0.0042,0.0041,0.004,0.004,0.0039,0.0039,0.029,0.0298,0.0307,0.0337,0.0358,0.0333,0.0368,0.0312,0.0235,0.0246,0.0236,0.0159,0.0158,0.0238,0.0238,0.0238,0.0239,0.0239,0.0239,0.0316,0.0328,0.0366,0.0394,0.0428,0.0465,0.0454,0.0442,0.0364,0.0333,0.0267,0.0179,0.0173,0.0169,0.0244,0.0243,0.0242,0.0242,0.0242,0.0343,0.0356,0.0416,0.0457,0.054,0.0574,0.0572,0.0538,0.0524,0.0478,0.0364,0.0356,0.0335,0.0325,0.0326,0.045,0.0451,0.0452,0,0.0368,0.0376,0.0469,0.0546,0.0628,0.0642,0.0667,0.064,0.0534,0.0526,0.0496,0.0368,0.0362,0.0337,0.0329,0.0331,0,0,0,0.0395,0.0422,0.0493,0.057,0.0664,0.0678,0.0676,0.0658,0.0554,0.0547,0.0472,0.0466,0.0362,0.0259,0.0208,0.02,0.0192,0,0]}]]